This is the latest recevied weather packets stored in our database for station/object AD7ZD. If no packets are shown the sender has not sent any weather packets the latest 10 day(s).
| Time | Temp. | Humidity | Pressure | Rain* | Wind** | Luminosity | Snow |
|---|---|---|---|---|---|---|---|
| 1777163175 | 16.67° C | 30% | 1000.7 hPa | 0 mm | - | 76 W/m² | - |
| 1777162870 | 17.22° C | 29% | 1000.7 hPa | 0 mm | - | 84 W/m² | - |
| 1777162566 | 17.22° C | 28% | 1000.7 hPa | 0 mm | - | 108 W/m² | - |
| 1777162261 | 17.22° C | 30% | 1000.6 hPa | 0 mm | - | 141 W/m² | - |
| 1777161956 | 17.22° C | 29% | 1001 hPa | 0 mm | - | 148 W/m² | - |
| 1777161651 | 16.67° C | 29% | 1000.7 hPa | 0 mm | - | 127 W/m² | - |
| 1777161349 | 16.67° C | 30% | 1000.7 hPa | 0 mm | - | 113 W/m² | - |
| 1777161044 | 16.67° C | 29% | 1000.8 hPa | 0 mm | - | 119 W/m² | - |
| 1777160741 | 17.78° C | 28% | 1000.8 hPa | 0 mm | - | 130 W/m² | - |
| 1777160435 | 17.78° C | 29% | 1000.7 hPa | 0 mm | - | 127 W/m² | - |
| 1777160132 | 17.22° C | 28% | 1000.7 hPa | 0 mm | - | 132 W/m² | - |
| 1777159827 | 17.78° C | 27% | 1000.8 hPa | 0 mm | - | 141 W/m² | - |
| 1777159524 | 17.78° C | 26% | 1000.8 hPa | 0 mm | - | 160 W/m² | - |
| 1777159221 | 17.78° C | 25% | 1001.1 hPa | 0 mm | - | 193 W/m² | - |
| 1777158917 | 17.78° C | 25% | 1001.3 hPa | 0 mm | - | 208 W/m² | - |
| 1777158615 | 17.78° C | 24% | 1001.2 hPa | 0 mm | - | 208 W/m² | - |
| 1777158311 | 17.78° C | 25% | 1001.3 hPa | 0 mm | - | 212 W/m² | - |
| 1777158008 | 17.78° C | 24% | 1001.3 hPa | 0 mm | - | 223 W/m² | - |
| 1777157704 | 17.78° C | 25% | 1001.4 hPa | 0 mm | - | 226 W/m² | - |
| 1777157400 | 17.78° C | 24% | 1001.4 hPa | 0 mm | - | 245 W/m² | - |
| 1777157095 | 17.78° C | 25% | 1001.6 hPa | 0 mm | - | 262 W/m² | - |
| 1777156791 | 18.33° C | 26% | 1001.6 hPa | 0 mm | - | 301 W/m² | - |
| 1777156486 | 17.78° C | 26% | 1001.8 hPa | 0 mm | - | 267 W/m² | - |
| 1777156183 | 18.33° C | 25% | 1001.8 hPa | 0 mm | - | 287 W/m² | - |
| 1777155879 | 18.33° C | 25% | 1001.9 hPa | 0 mm | - | 498 W/m² | - |
* Rain latest hour (hover to see other rain measurements)
** Current wind speed in m/s (hover to see current wind gust speed)